Location: Bazinghen
(50.8246°N, 1.6616°E)
Time: 02:14:45
(UTC+00:00)

Thor Agena Rocket - Pass Details

Date: 09 April 2020
Orbit: 760 x 807 km, 99.0° (Epoch: 03 June)

Event Time Altitude Azimuth Distance (km) Brightness Sun altitude
Rises 23:10:00 0° 11° (NNE) 3,242 7.7 -30.4°
Reaches altitude 10° 23:12:22 10° 7° (N) 2,316 6.8 -30.4°
Enters shadow 23:16:55 48° 306° (NW) 1,001 4.2 -30.6°
